Location: Hohe Wand Kleine Kanzel
(47.8330°N, 16.0170°E)
Time: 06:56:27
(UTC+02:00)

Tiros 1 - All Passes

Search period start: 26 July 2021 00:00
Search period end: 05 August 2021 00:00
Orbit: 630 x 663 km, 48.4° (Epoch: 25 July)

Date Brightness Start Highest point End Pass type
(mag) Time Alt. Az. Time Alt. Az. Time Alt. Az.
26 Jul - 01:36:13 10° WNW 01:40:55 77° SSW 01:45:33 10° ESE visible
26 Jul - 03:18:43 10° W 03:22:42 29° SW 03:26:40 10° SSE visible
26 Jul - 20:56:18 10° SSW 21:00:32 33° SSE 21:04:44 10° E daylight
26 Jul - 22:37:40 10° WSW 22:42:24 81° SSE 22:47:06 10° E visible
27 Jul - 00:19:58 10° W 00:24:41 85° N 00:29:22 10° E visible
27 Jul - 02:02:14 10° W 02:06:48 52° SSW 02:11:17 10° SE visible
27 Jul - 03:45:32 10° W 03:48:13 15° SW 03:50:53 10° S visible
27 Jul - 19:41:44 10° S 19:44:46 17° SE 19:47:47 10° E daylight
27 Jul - 21:21:38 10° SW 21:26:16 54° SSE 21:30:52 10° E visible
27 Jul - 23:03:39 10° W 23:08:24 84° N 23:13:06 10° E visible
28 Jul - 00:45:57 10° W 00:50:40 79° SSW 00:55:19 10° ESE visible
28 Jul - 02:28:24 10° W 02:32:29 30° SW 02:36:32 10° SSE visible
28 Jul - 20:06:08 10° SSW 20:10:18 31° SE 20:14:27 10° E daylight
28 Jul - 21:47:23 10° WSW 21:52:08 79° SSE 21:56:52 10° E visible
28 Jul - 23:29:40 10° W 23:34:25 84° N 23:39:07 10° E visible
29 Jul - 01:11:57 10° W 01:16:33 54° SSW 01:21:04 10° SE visible
29 Jul - 02:55:06 10° W 02:58:01 17° SW 03:00:55 10° S visible
29 Jul - 18:51:43 10° S 18:54:33 16° SE 18:57:22 10° E daylight
29 Jul - 20:31:24 10° SW 20:36:00 52° SSE 20:40:37 10° E daylight
29 Jul - 22:13:21 10° W 22:18:07 85° N 22:22:51 10° E visible
29 Jul - 23:55:41 10° W 00:00:25 82° SSW 00:05:05 10° ESE visible
30 Jul - 01:38:05 10° W 01:42:16 32° SSW 01:46:24 10° SSE visible
30 Jul - 19:15:58 10° SSW 19:20:04 29° SE 19:24:10 10° E daylight
30 Jul - 20:57:07 10° WSW 21:01:53 77° SSE 21:06:36 10° ENE daylight
30 Jul - 22:39:24 10° W 22:44:09 84° N 22:48:52 10° E visible
31 Jul - 00:21:41 10° WNW 00:26:18 57° SSW 00:30:52 10° SE visible
31 Jul - 02:04:41 10° W 02:07:49 18° SW 02:10:56 10° S visible
31 Jul - 18:01:45 10° S 18:04:20 15° SE 18:06:56 10° ESE daylight
31 Jul - 19:41:10 10° SW 19:45:46 49° SSE 19:50:21 10° E daylight
31 Jul - 21:23:04 10° W 21:27:51 86° N 21:32:36 10° E visible
31 Jul - 23:05:24 10° W 23:10:09 84° SSW 23:14:51 10° ESE visible
01 Aug - 00:47:47 10° W 00:52:03 35° SSW 00:56:16 10° SSE visible
01 Aug - 18:25:48 10° SSW 18:29:50 27° SE 18:33:52 10° E daylight
01 Aug - 20:06:50 10° WSW 20:11:37 74° SSE 20:16:21 10° ENE daylight
01 Aug - 21:49:06 10° W 21:53:53 83° N 21:58:36 10° E visible
01 Aug - 23:31:24 10° WNW 23:36:04 60° SSW 23:40:39 10° ESE visible
02 Aug - 01:14:18 10° W 01:17:37 19° SW 01:20:54 10° S visible
02 Aug - 17:11:49 10° SSE 17:14:07 13° SE 17:16:27 10° ESE daylight
02 Aug - 18:50:56 10° SW 18:55:31 47° SSE 19:00:05 10° E daylight
02 Aug - 20:32:47 10° W 20:37:35 88° N 20:42:20 10° E daylight
02 Aug - 22:15:07 10° W 22:19:53 86° SSW 22:24:36 10° ESE visible
02 Aug - 23:57:28 10° W 00:01:49 37° SSW 00:06:06 10° SE visible
03 Aug - 17:35:40 10° SSW 17:39:36 26° SE 17:43:32 10° E daylight
03 Aug - 19:16:35 10° WSW 19:21:21 72° SSE 19:26:06 10° ENE daylight
03 Aug - 20:58:49 10° W 21:03:36 83° N 21:08:21 10° E visible
03 Aug - 22:41:06 10° WNW 22:45:48 63° SSW 22:50:26 10° ESE visible
04 Aug - 00:23:55 10° W 00:27:24 21° SW 00:30:52 10° S visible
04 Aug - 16:21:56 10° SSE 16:23:55 12° SE 16:25:54 10° ESE daylight
04 Aug - 18:00:43 10° SW 18:05:16 44° SSE 18:09:48 10° E daylight
04 Aug - 19:42:30 10° W 19:47:18 89° NNW 19:52:05 10° E daylight
04 Aug - 21:24:49 10° W 21:29:37 88° S 21:34:21 10° ESE visible
04 Aug - 23:07:10 10° W 23:11:35 39° SSW 23:15:56 10° SE visible
